Flag Weather past 2 weeks in Abidjan, Cote d'Ivoire (Ivory Coast)

Now
81 °F

Passing clouds.


Feels Like: 87 °F
Forecast: N/A
Wind: 7 mph from Southwest

Location: Abidjan Airport

Current Time: Nov 20, 2014 at 11:48:55 PM

Latest Report: Nov 20, 2014 at 11:30 PM


Visibility: N/A

Pressure: 29.86 "Hg

Humidity: 89%

Dew point: 77 °F

Location of AbidjanLocation

Historic Weather in Abidjan — Graph

°F

Abidjan temperature yesterday

Maximum temperature yesterday: 86 °F (at 11:00 AM)
Minimum temperature yesterday: 75 °F (at 3:00 AM)
Average temperature yesterday: 81 °F

Past Weeks' High & Low Weather Summary

 TemperatureHumidityPressure
High88 °F (Nov 16, 2:00 PM)100% (Nov 5, 10:00 PM)30.01 "Hg (Nov 5, 10:00 PM)
Low72 °F (Nov 5, 11:00 PM)66% (Nov 6, 12:00 PM)29.74 "Hg (Nov 11, 3:30 PM)
Average81 °F84%29.83 "Hg
* Reported Nov 5 10:00 PM — Nov 20 10:30 PM, Abidjan, Weather by CustomWeather, © 2014

Note: Actual official high and low records may vary slightly from our data, if they occured in-between our weather recording intervals... More about our weather records

Advertising

Abidjan weather history for previous 24 hours

 ConditionsComfort  
Time TempWeatherWind HumidityBarometerVisibility
10:30 PM
Nov 20
81 °FPassing clouds.6 mph84%29.89 "HgN/A
10:00 PM81 °FPassing clouds.6 mph84%29.89 "HgN/A
9:30 PM81 °FPassing clouds.7 mph84%29.89 "HgN/A
9:00 PM81 °FPassing clouds.8 mph84%29.86 "HgN/A
8:30 PM81 °FPassing clouds.8 mph84%29.86 "HgN/A
8:00 PM81 °FPassing clouds.10 mph89%29.83 "HgN/A
7:30 PM81 °FThunderstorms. Passing clouds.10 mph89%29.83 "HgN/A
7:00 PM82 °FThunderstorms. Passing clouds.8 mph79%29.83 "HgN/A
4:00 PM84 °FScattered clouds.13 mph74%29.80 "HgN/A
3:30 PM86 °FScattered clouds.13 mph75%29.80 "HgN/A
3:00 PM86 °FScattered clouds.14 mph70%29.83 "HgN/A
2:30 PM84 °FScattered clouds.14 mph74%29.83 "HgN/A
2:00 PM86 °FScattered clouds.14 mph75%29.83 "HgN/A
1:30 PM86 °FScattered clouds.13 mph70%29.83 "HgN/A
1:00 PM86 °FScattered clouds.13 mph75%29.86 "HgN/A
12:30 PM86 °FScattered clouds.13 mph75%29.86 "HgN/A
11:30 AM86 °FScattered clouds.12 mph75%29.89 "HgN/A
11:00 AM86 °FScattered clouds.10 mph75%29.89 "HgN/A
10:30 AM84 °FScattered clouds.10 mph79%29.89 "HgN/A
10:00 AM86 °FScattered clouds.10 mph75%29.92 "HgN/A
9:30 AM84 °FScattered clouds.10 mph79%29.92 "HgN/A
9:00 AM84 °FScattered clouds.9 mph79%29.92 "HgN/A
8:30 AM82 °FScattered clouds.9 mph84%29.92 "HgN/A
8:00 AM82 °FScattered clouds.6 mph84%29.89 "HgN/A
7:30 AM82 °FScattered clouds.6 mph79%29.89 "HgN/A
7:00 AM81 °FScattered clouds.3 mph89%29.86 "HgN/A
6:30 AM79 °FScattered clouds.7 mph89%29.86 "HgN/A
6:00 AM79 °FPassing clouds.5 mph89%29.86 "HgN/A
5:30 AM79 °FPassing clouds.3 mph89%29.83 "HgN/A
5:00 AM79 °FPassing clouds.5 mph89%29.83 "HgN/A
4:30 AM79 °FPassing clouds.6 mph94%29.83 "HgN/A
4:00 AM79 °FPassing clouds.6 mph94%29.83 "HgN/A
3:30 AM79 °FPassing clouds.6 mph94%29.83 "HgN/A
3:00 AM79 °FPassing clouds.6 mph94%29.83 "HgN/A
2:30 AM79 °FPassing clouds.7 mph89%29.83 "HgN/A
2:00 AM81 °FPassing clouds.7 mph84%29.83 "HgN/A
1:00 AM81 °FPassing clouds.7 mph89%29.86 "HgN/A
11:30 PM
Nov 19
81 °FPassing clouds.8 mph89%29.89 "HgN/A
11:00 PM81 °FPassing clouds.7 mph89%29.89 "HgN/A
Weather by CustomWeather, © 2014

See weather overviewHow to use our weather pages